Home   Weather   Orenburg   Past weeks

Flag for Russia Past Weather in Orenburg, Russia — Yesterday and Last 2 Weeks

Now
14 °F

Overcast.


Feels Like: -1 °F
Forecast: 11 / 23 °F
Wind: 15 mph from Southwest

Location: Orenburg / Tsentralny

Current Time: Jan 20, 2017 at 3:15:55 pm

Latest Report: Jan 20, 2017 at 2:30 pm


Visibility: N/A

Pressure: 29.95 "Hg

Humidity: 79%

Dew Point: 9 °F

Location of OrenburgLocation

Past Weather in Orenburg — Graph

°F

Orenburg Temperature Yesterday

Maximum temperature yesterday: 0 °F (at 3:30 pm)
Minimum temperature yesterday: -17 °F (at 11:30 pm)
Average temperature yesterday: -9 °F

High & Low Weather Summary for the Past Weeks

 TemperatureHumidityPressure
High34 °F (Jan 7, 7:00 pm)100% (Jan 6, 8:30 am)30.63 "Hg (Jan 6, 8:30 am)
Low-17 °F (Jan 19, 11:30 pm)66% (Jan 16, 7:00 pm)29.98 "Hg (Jan 20, 2:00 pm)
Average7 °F84%30.35 "Hg
* Reported Jan 5 2:00 pm — Jan 20 2:00 pm, Orenburg, Weather by CustomWeather, © 2017

Note: Actual official high and low records may vary slightly from our data, if they occured in-between our weather recording intervals... More about our weather records

Advertising

Orenburg Weather History for the Previous 24 Hours

Scroll right to see more
 ConditionsComfort  
Time TempWeatherWind HumidityBarometerVisibility
2:00 pm
Fri, Jan 20
14 °FOvercast.13 mph79%29.98 "HgN/A
1:30 pm12 °FOvercast.13 mph79%30.01 "HgN/A
1:00 pm10 °FLow clouds.13 mph85%30.01 "HgN/A
12:30 pm9 °FOvercast.10 mph85%30.04 "HgN/A
12:00 pm7 °FLight snow. Low clouds.10 mph85%30.07 "HgN/A
11:30 am7 °FLight snow. Low clouds.10 mph85%30.07 "Hg6 mi
11:00 am5 °FLight snow. Low clouds.8 mph85%30.07 "Hg2 mi
10:30 am3 °FLight snow. Low clouds.6 mph78%30.09 "Hg1 mi
10:00 am1 °FLight snow. Overcast.10 mph85%30.09 "Hg4 mi
9:30 am1 °FLight snow. Overcast.10 mph85%30.09 "HgN/A
9:00 am1 °FLight snow. Overcast.8 mph85%30.12 "Hg6 mi
8:30 am0 °FLight snow. Overcast.8 mph84%30.12 "Hg4 mi
8:00 am0 °FLight snow. Overcast.8 mph84%30.12 "Hg5 mi
7:30 am0 °FLight snow. Overcast.6 mph78%30.15 "Hg6 mi
7:00 am-4 °FLight snow. Low clouds.6 mph84%30.15 "Hg6 mi
6:30 am-4 °FLight snow. Overcast.6 mph84%30.18 "HgN/A
6:00 am-4 °FLight snow. Overcast.6 mph77%30.18 "Hg6 mi
5:30 am-4 °FLight snow. Overcast.3 mph77%30.21 "Hg6 mi
5:00 am-6 °FLight snow. Overcast.3 mph77%30.21 "Hg6 mi
4:30 am-8 °FLight snow. Overcast.3 mph84%30.24 "HgN/A
4:00 am-8 °FLight snow. Low clouds.3 mph77%30.24 "Hg4 mi
3:30 am-8 °FLight snow. Low clouds.1 mph77%30.24 "Hg4 mi
3:00 am-9 °FLight snow. Overcast.1 mph84%30.24 "Hg6 mi
2:30 am-9 °FLight snow. Overcast.1 mph84%30.24 "Hg6 mi
2:00 am-9 °FLight snow. Overcast.1 mph77%30.27 "Hg5 mi
1:30 am-9 °FLight snow. Overcast.1 mph77%30.27 "Hg5 mi
1:00 am-9 °FSleet. Overcast.1 mph77%30.27 "Hg4 mi
12:30 am-11 °FLight snow. Low clouds.1 mph84%30.27 "Hg6 mi
12:00 am-11 °FLight snow. Overcast.1 mph76%30.30 "Hg5 mi
11:30 pm
Thu, Jan 19
-17 °FLight snow. Passing clouds.1 mph76%30.30 "Hg6 mi
11:00 pm-15 °FLight snow. Passing clouds.1 mph69%30.30 "Hg6 mi
10:30 pm-15 °FLight snow. Passing clouds.1 mph76%30.30 "Hg6 mi
10:00 pm-15 °FPassing clouds.1 mph76%30.30 "HgN/A
9:30 pm-15 °FClear.1 mph76%30.30 "Hg10 mi
9:00 pm-15 °FClear.No wind69%30.30 "Hg10 mi
8:30 pm-11 °FClear.No wind84%30.30 "Hg10 mi
8:00 pm-11 °FClear.3 mph76%30.30 "Hg10 mi
7:30 pm-11 °FClear.No wind76%30.30 "Hg10 mi
7:00 pm-13 °FPassing clouds.No wind76%30.30 "HgN/A
6:30 pm-13 °FScattered clouds.1 mph76%30.33 "Hg6 mi
6:00 pm-11 °FScattered clouds.No wind76%30.33 "HgN/A
5:30 pm-9 °FSunny.1 mph77%30.33 "Hg10 mi
5:00 pm-6 °FSunny.1 mph77%30.33 "Hg10 mi
4:30 pm-2 °FScattered clouds.No wind77%30.33 "HgN/A
4:00 pm0 °FPartly sunny.1 mph78%30.33 "HgN/A
3:30 pm0 °FPartly sunny.1 mph78%30.33 "HgN/A
3:00 pm-2 °FPartly sunny.1 mph84%30.33 "HgN/A
Weather by CustomWeather, © 2017

See weather overviewHow to use our weather pages